DW9987 Weather Reports


Display with metric or nautical units.
time (UTC)temp
F
wind
direction
speed
MPH
gust
MPH
rain 1hr
in
rain 24hr
in
rain mn
in
humidity
%
barometer
mb
20260905054537 81 254 0.0 0.0 0.00 0.00 0.00 84 1011.8
20260905053019 82 254 0.0 1.0 0.00 0.00 0.00 84 1011.7
20260905051519 82 256 0.0 1.0 0.00 0.00 0.00 84 1011.5
20260905050017 82 248 0.0 1.0 0.00 0.00 0.00 84 1011.6
20260905044518 81 201 0.0 2.0 0.00 0.00 0.00 86 1011.5
20260905043020 80 208 0.0 2.0 0.00 0.00 0.00 88 1011.7
20260905041514 80 209 0.0 3.0 0.00 0.00 0.00 89 1011.8
20260905040020 79 234 0.0 2.0 0.00 0.00 0.00 91 1011.9
20260905034513 79 238 0.0 0.0 0.00 0.00 0.00 92 1012.3
20260905033013 78 238 0.0 0.0 0.00 0.00 0.00 91 1012.5
20260905031513 79 237 0.0 0.0 0.00 0.00 0.00 91 1012.5
20260905030012 79 237 0.0 0.0 0.00 0.00 0.00 90 1012.4
20260905024513 79 237 0.0 0.0 0.00 0.00 0.00 90 1012.3
20260905023018 79 237 0.0 0.0 0.00 0.00 0.00 89 1012.2
20260905021510 79 237 0.0 0.0 0.00 0.00 0.00 89 1012.0
20260905020010 80 237 0.0 0.0 0.00 0.00 0.00 89 1011.7
20260905014509 80 237 0.0 0.0 0.00 0.00 0.00 89 1011.5
20260905013009 80 237 0.0 0.0 0.00 0.00 0.00 88 1011.4
20260905011510 81 237 0.0 0.0 0.00 0.00 0.00 88 1011.4
20260905010011 81 237 0.0 0.0 0.00 0.00 0.00 87 1011.0
20260905004508 82 237 0.0 0.0 0.00 0.00 0.00 86 1011.0
20260905003007 83 237 0.0 0.0 0.00 0.00 0.00 86 1010.8
20260905001507 84 238 0.0 0.0 0.00 0.00 0.00 83 1011.1
20260905000007 85 238 0.0 0.0 0.00 0.00 0.00 82 1011.1
20260904234506 86 237 0.0 0.0 0.00 0.00 0.00 79 1010.9
20260904233004 88 237 0.0 1.0 0.00 0.00 0.00 75 1011.0
20260904231502 90 244 0.0 4.0 0.00 0.00 0.00 67 1011.1
20260904230000 90 266 0.0 4.0 0.00 0.00 0.00 67 1011.2
20260904224501 91 188 1.0 5.0 0.00 0.00 0.00 67 1011.1
20260904223103 91 188 1.0 6.0 0.00 0.00 0.00 66 1011.4
20260904221602 91 184 1.0 5.0 0.00 0.00 0.00 65 1011.4
20260904220059 91 193 1.0 6.0 0.00 0.00 0.00 68 1011.4
20260904214557 90 205 0.0 2.0 0.00 0.00 0.00 74 1011.2
20260904213057 90 225 0.0 3.0 0.00 0.00 0.00 68 1011.1
20260904211557 91 192 2.0 7.0 0.00 0.00 0.00 68 1011.1
20260904210059 91 202 4.0 8.0 0.00 0.00 0.00 67 1011.2
20260904204555 91 224 2.0 6.0 0.00 0.00 0.00 67 1011.4
20260904203053 90 197 0.0 5.0 0.00 0.00 0.00 72 1011.7
20260904201610 90 215 2.0 4.0 0.00 0.00 0.00 68 1011.9
20260904200050 90 203 0.0 6.0 0.00 0.00 0.00 69 1012.2
20260904194602 90 203 1.0 5.0 0.00 0.00 0.00 68 1012.3
20260904193045 89 183 0.0 5.0 0.00 0.00 0.00 68 1012.7
20260904191544 88 171 1.0 5.0 0.00 0.00 0.00 70 1012.9
20260904190041 88 207 1.0 5.0 0.00 0.00 0.00 68 1013.1
20260904184540 88 168 0.0 4.0 0.00 0.00 0.00 68 1013.1
20260904183037 87 202 0.0 3.0 0.00 0.00 0.00 68 1013.3
20260904181537 87 219 3.0 11.0 0.00 0.00 0.00 69 1013.6
20260904180036 86 104 1.0 6.0 0.00 0.00 0.00 69 1013.9
20260904174543 87 245 0.0 3.0 0.00 0.00 0.00 71 1014.2
20260904173038 87 336 0.0 9.0 0.00 0.00 0.00 71 1014.4
20260904171538 87 146 0.0 4.0 0.00 0.00 0.00 73 1014.4
20260904170035 87 16 1.0 8.0 0.00 0.00 0.00 72 1014.4
20260904164533 86 360 2.0 13.0 0.00 0.00 0.00 73 1014.5
20260904163034 87 292 0.0 2.0 0.00 0.00 0.00 76 1014.5
20260904161535 87 13 0.0 4.0 0.00 0.00 0.00 73 1014.3
20260904160028 86 238 0.0 2.0 0.00 0.00 0.00 76 1014.1
20260904154524 85 5 1.0 3.0 0.00 0.00 0.00 74 1014.0
20260904153022 84 321 0.0 2.0 0.00 0.00 0.00 78 1013.9
20260904151518 83 291 0.0 0.0 0.00 0.00 0.00 79 1013.7
20260904150027 82 292 0.0 0.0 0.00 0.00 0.00 82 1013.5
20260904144513 82 292 0.0 3.0 0.00 0.00 0.00 78 1013.3
20260904143013 81 209 0.0 2.0 0.00 0.00 0.00 79 1013.3
20260904141507 80 218 0.0 2.0 0.00 0.00 0.00 81 1013.4
20260904140005 80 326 0.0 1.0 0.00 0.00 0.00 82 1013.3
20260904134503 79 12 0.0 0.0 0.00 0.00 0.00 83 1013.2
20260904133059 77 262 0.0 1.0 0.00 0.00 0.00 85 1013.1
20260904131559 76 269 0.0 0.0 0.00 0.00 0.00 89 1013.0
20260904130055 76 269 0.0 0.0 0.00 0.00 0.00 88 1012.7
20260904124555 76 269 0.0 0.0 0.00 0.00 0.00 87 1012.4
20260904123055 76 269 0.0 0.0 0.00 0.00 0.00 85 1012.2
20260904121555 77 269 0.0 0.0 0.00 0.00 0.00 83 1012.0
20260904120105 77 269 0.0 0.0 0.00 0.00 0.00 82 1011.9
20260904114555 78 273 0.0 3.0 0.00 0.00 0.00 81 1011.6
20260904113054 78 257 0.0 4.0 0.00 0.00 0.00 80 1011.3
20260904111552 78 252 0.0 5.0 0.00 0.00 0.00 80 1011.2
20260904110050 78 245 1.0 5.0 0.00 0.00 0.00 80 1011.2
20260904104551 78 249 1.0 5.0 0.00 0.00 0.00 80 1011.2
20260904103048 78 205 1.0 5.0 0.00 0.00 0.00 80 1011.5
20260904101548 77 246 0.0 2.0 0.00 0.00 0.00 81 1011.8
20260904100050 77 266 0.0 2.0 0.00 0.00 0.00 82 1011.8
20260904094546 77 238 0.0 2.0 0.00 0.00 0.00 84 1012.0
20260904093043 76 235 0.0 1.0 0.00 0.00 0.00 86 1011.9
20260904091543 76 236 0.0 0.0 0.00 0.00 0.00 86 1012.1
20260904090043 77 236 0.0 0.0 0.00 0.00 0.00 86 1012.1
20260904084541 77 236 0.0 0.0 0.00 0.00 0.00 87 1012.1
20260904083043 77 203 0.0 0.0 0.00 0.00 0.00 89 1012.0
20260904081538 76 210 0.0 2.0 0.00 0.00 0.00 92 1011.7
20260904080038 76 223 0.0 0.0 0.00 0.00 0.00 93 1011.7
20260904074537 76 223 0.0 1.0 0.00 0.00 0.00 94 1011.4
20260904073035 76 198 0.0 3.0 0.00 0.00 0.00 94 1011.3
20260904071533 75 211 0.0 0.0 0.00 0.00 0.00 94 1011.5
20260904070032 76 211 0.0 0.0 0.00 0.00 0.00 94 1011.8
20260904064529 76 211 0.0 0.0 0.00 0.00 0.00 94 1012.0
20260904063030 76 211 0.0 0.0 0.00 0.00 0.00 93 1012.2
20260904061526 76 211 0.0 0.0 0.00 0.00 0.00 93 1012.4
20260904060025 76 211 0.0 0.0 0.00 0.00 0.00 93 1012.5